User: anonymous   Login
Location: Unspecified
(0.0000°N, 0.0000°E)
Time: 04:08:19
(UTC+00:00)
Language:

Mayak - Orbit

View from above orbital plane
View from above orbital plane
View from above satellite
View from above satellite

Ground track
Ground track

The orbit data is extracted from the following two-line orbital elements,

1 42830U 17042F   23153.52517520  .00011683  00000-0  89544-3 0  9994
2 42830  97.4072 359.4046 0011433 235.7154 124.2989 15.01930369320678
Epoch (UTC): 02 June 2023 12:36:15
Eccentricity: 0.0011433
inclination: 97.4072°
perigee height: 553 km
apogee height: 569 km
right ascension of ascending node: 359.4046°
argument of perigee: 235.7154°
revolutions per day: 15.01930369
mean anomaly at epoch: 124.2989°
orbit number at epoch: 32067

The dashed part of the orbit path shows where the satellite is in the earth's shadow,  

DLR